sat.trackr.live / text

‹ back to catalog

STARLINK-2421

NORAD 48098 · 2021-027G

PAYLOAD ACTIVE UNKNOWN

§ Identity

Operator
Country
US
Launch date
2021-04-07
Launch site
AFETR
Launch vehicle
Mass (kg)
RCS (m²)

Purposes: comms

External: N2YO · Heavens-Above · Gunter

§ Orbital elements

Epoch: 2026-09-19T19:18:57.083904Z

Period
93.28 min
Inclination
53.1602°
Eccentricity
0.0003096
Mean motion
15.43682782 rev/d
Perigee alt
433.1 km
Apogee alt
437.4 km
Semi-major
6,813.4 km
B*
9.0920e-4
RAAN
329.0186°
Arg perigee
21.9817°
Mean anomaly
338.1322°
Rev number
30,243

§ Raw data

STARLINK-24211 48098U 21027G   26262.80482736  .00041454  00000+0  90920-3 0  99972 48098  53.1602 329.0186 0003096  21.9817 338.1322 15.43682782302433

JSON: /api/v1/satellites/48098 · /tle

For live sub-satellite position, see the globe view (requires WebGL).

§ Visibility from observer

Set your observer location to see the next 7 days of passes ≥ 10°. The values pass through the URL so the page stays shareable.

No JS? Fill the form by hand. The geolocation button needs JavaScript.